Location: Colonia Mina de C?rbuni
(46.1667°N, 22.7167°E)
Time: 10:53:38
(UTC+00:00)

BlueWalker 3 - Pass Details

Date: 28 February 2024
Orbit: 485 x 496 km, 53.2° (Epoch: 12 April)

Event Time Altitude Azimuth Distance (km) Brightness Sun altitude
Rises 17:12:53 0° 296° (WNW) 2,561 6.8 -11.1°
Reaches altitude 10° 17:15:14 10° 307° (NW) 1,677 5.4 -11.5°
Maximum altitude 17:18:38 30° 11° (N) 888 3.1 -12.1°
Enters shadow 17:20:51 17° 63° (ENE) 1,286 3.5 -12.5°
